Location: *
(48.8489°N, 2.3218°E)
Time: 03:30:32
(UTC+00:00)

Cosmos 1733 Rocket - Pass Details

Date: 23 August 2019
Orbit: 604 x 627 km, 82.5° (Epoch: 21 September)

Event Time Altitude Azimuth Distance (km) Brightness Sun altitude
Rises 20:19:15 0° 197° (SSW) 2,848 6.3 -13.6°
Reaches altitude 10° 20:21:29 10° 200° (SSW) 1,949 5.5 -13.9°
Maximum altitude 20:25:45 63° 282° (WNW) 682 3.5 -14.5°
Drops below altitude 10° 20:30:04 10° 4° (N) 1,966 6.1 -15.1°
Sets 20:32:19 0° 8° (N) 2,877 6.9 -15.4°
